Wind_Speed
5 7 10 13 14 17 19 19 19 18 18 17 16 14 13 11 10 9 8 7 6 5 6 7 8 9 10 11 11 11 11 11 10 10 10 9 10 10 10 11 12 13 13 14 15 16 16 17 18 18 19 19 19 17 17 17 18 20 17 17 18 17 16 13 13 12 12 11 10 9 9 9 7 8 8 8 8 8 9 9 9 9 8 9 10
6 7 10 13 15 17 19 20 19 19 19 18 17 15 14 12 11 10 9 7 6 6 6 6 7 8 9 10 10 11 11 10 10 10 9 9 9 10 10 11 12 13 13 13 14 16 17 18 19 20 20 20 20 18 18 18 20 21 18 17 17 14 13 13 13 12 11 11 10 9 8 8 7 8 8 8 8 8 9 10 10 9 9 10 11
7 7 9 12 15 17 19 20 20 20 19 19 18 16 15 13 12 11 10 8 7 6 6 6 6 7 7 8 9 10 10 10 10 9 9 9 9 10 10 10 12 12 12 13 14 16 17 19 20 21 21 21 21 19 18 18 19 20 19 19 16 12 12 11 11 10 10 10 10 9 8 8 7 7 7 7 8 9 10 10 11 10 11 11 11
8 7 8 11 14 17 20 21 21 21 20 19 18 17 16 14 13 12 11 9 8 7 6 6 6 6 6 7 8 9 10 10 9 9 9 9 9 9 10 10 11 12 12 13 14 15 17 19 20 21 22 22 22 21 20 19 19 18 17 17 15 12 11 10 9 9 9 9 8 8 8 8 8 7 7 8 8 9 10 11 11 11 12 12 12
8 8 8 9 12 17 20 22 22 21 21 20 19 18 16 15 14 13 12 10 9 8 7 6 6 6 6 6 7 8 9 9 9 9 9 9 9 9 9 10 11 11 11 12 14 15 17 18 19 20 22 23 23 22 21 20 19 18 17 16 14 12 11 10 9 9 9 8 8 8 8 9 9 9 8 9 10 10 11 11 11 11 12 12 13
8 9 9 9 11 16 21 22 22 22 21 21 20 19 17 16 15 14 13 12 11 10 9 7 6 5 5 5 6 7 8 9 9 9 9 9 9 8 9 9 10 10 11 12 13 14 16 17 18 19 21 23 23 23 22 21 19 18 17 15 14 14 14 13 12 11 10 10 10 10 10 11 12 12 11 11 12 12 12 12 12 12 12 12 13
9 10 11 10 11 15 20 23 23 23 22 21 21 19 18 17 16 15 15 13 12 11 10 8 6 5 5 5 6 7 7 8 8 8 9 9 8 8 8 9 10 10 10 11 13 14 15 16 17 18 20 22 22 23 23 22 21 20 18 16 14 14 15 15 15 14 14 13 12 13 13 14 15 14 13 13 14 14 13 13 13 12 12 13 14
10 11 12 12 12 15 20 22 23 23 23 22 21 20 19 18 17 17 16 15 14 12 11 9 8 6 6 6 6 7 8 8 8 8 8 9 8 8 8 8 9 9 9 11 12 13 14 15 15 17 18 20 21 22 22 22 21 21 21 19 17 16 16 17 17 17 17 16 16 17 16 17 16 15 14 15 15 15 15 15 14 14 14 14 14
11 11 12 13 13 15 19 22 23 24 23 22 21 20 19 19 19 18 16 15 14 13 12 11 10 8 8 7 7 7 8 8 8 8 9 9 8 8 8 8 9 9 9 10 11 12 13 13 14 15 16 17 18 19 20 20 21 21 20 20 20 19 20 20 20 21 21 21 21 22 22 21 20 18 18 18 18 17 17 16 16 16 15 15 15
13 12 13 14 15 17 19 22 24 24 23 22 21 20 20 20 20 18 17 15 14 14 13 12 11 10 9 8 8 8 9 8 8 9 9 9 9 8 8 8 8 8 8 9 11 11 12 12 13 13 14 15 15 17 18 19 19 19 18 18 19 19 20 21 22 22 23 24 24 24 24 23 22 22 22 22 21 21 20 20 19 19 18 18 18
15 14 14 14 16 18 20 22 23 23 23 22 22 21 21 21 20 18 17 16 15 15 14 14 13 11 10 9 9 9 9 9 9 9 9 10 9 9 8 8 8 8 8 8 10 11 11 11 12 12 12 13 12 14 16 17 17 17 17 17 17 18 19 20 21 21 22 23 24 24 23 22 22 22 22 22 23 23 23 23 23 22 22 22 21
17 16 16 16 17 18 19 20 21 22 23 23 22 22 21 20 19 18 17 17 16 16 16 14 13 12 11 10 10 10 10 10 11 10 10 10 10 10 10 9 8 8 8 8 9 10 10 11 11 11 10 10 10 12 14 15 15 16 16 16 17 18 19 20 20 21 22 23 23 23 22 21 20 21 21 21 22 22 23 23 23 23 23 23 23
17 18 18 17 18 19 19 19 20 21 22 23 23 22 21 20 19 18 18 18 18 17 16 15 14 12 11 11 10 11 11 12 12 12 11 11 11 11 11 10 9 9 8 8 9 9 9 10 10 10 9 8 8 10 12 13 15 15 15 15 17 18 19 20 20 21 22 22 22 21 21 20 19 20 20 20 21 21 22 22 22 22 22 22 23
18 19 19 19 19 19 18 18 19 21 22 23 23 22 21 20 19 18 18 18 18 18 17 16 14 13 12 12 11 11 12 13 13 13 12 12 12 12 12 12 11 10 9 9 8 9 9 9 9 9 8 7 7 8 9 11 14 14 14 15 17 18 18 18 19 20 21 21 20 20 20 18 18 19 19 19 20 20 21 21 21 21 21 21 21
19 19 19 19 19 19 18 18 19 21 22 22 22 22 20 20 19 19 19 19 18 17 17 16 15 14 13 13 12 12 13 13 14 14 13 14 13 13 13 13 12 11 10 10 9 9 9 9 9 9 8 7 7 7 8 9 12 14 14 15 15 16 16 16 17 18 19 18 18 18 18 17 16 17 17 18 18 19 19 19 20 20 20 21 21
18 19 18 18 17 18 18 18 20 21 22 22 22 21 21 20 20 20 19 18 17 17 17 17 16 15 14 14 13 13 13 14 15 15 14 14 14 14 14 14 13 12 11 11 10 10 9 9 9 9 8 7 7 6 6 8 11 13 13 13 13 14 14 14 15 15 16 16 15 15 16 15 15 15 15 16 16 17 17 18 18 19 19 19 19
16 17 17 16 16 17 17 18 20 21 21 21 21 21 21 20 20 20 19 18 17 17 17 17 17 17 16 14 14 14 13 14 15 15 15 15 15 15 15 15 14 13 12 12 11 11 10 10 9 9 8 8 7 6 6 7 9 11 11 11 10 11 11 11 12 12 12 12 12 12 12 13 13 13 13 14 14 14 15 16 16 17 17 17 17
14 14 15 16 16 16 17 18 19 19 19 20 20 20 20 20 20 19 18 17 17 17 18 18 18 18 17 15 14 14 13 14 15 15 16 17 16 17 17 16 16 15 14 13 12 12 11 10 10 10 9 9 8 7 6 6 7 9 10 9 7 7 7 7 8 9 9 8 8 8 9 10 10 10 10 11 11 12 13 13 14 14 15 15 15
14 14 15 15 15 15 16 16 16 16 17 18 18 18 18 19 19 18 17 17 17 18 19 19 19 18 17 16 15 14 13 13 14 16 17 18 18 19 18 17 17 16 15 14 13 13 12 11 11 10 9 9 9 8 8 6 6 8 8 7 6 5 5 3 4 4 5 5 5 4 5 6 7 7 7 8 8 9 9 10 11 11 12 12 13
14 14 15 15 15 15 15 15 15 16 16 16 16 17 18 18 18 17 17 18 18 19 19 19 19 18 17 16 14 13 12 12 13 15 17 19 20 20 19 18 17 17 16 15 15 14 13 12 12 11 10 10 10 9 8 7 7 6 6 6 5 4 4 4 2 1 1 1 1 1 1 2 3 4 5 5 5 6 6 6 7 8 8 9 10
15 16 15 15 15 15 15 15 15 15 16 16 16 17 17 17 17 17 18 18 19 20 20 19 18 17 16 15 13 12 11 11 13 14 17 19 21 21 20 19 18 18 17 17 16 15 15 14 13 13 12 11 11 10 9 8 7 5 5 4 4 5 4 4 4 4 5 4 3 3 2 2 2 0 1 2 2 2 3 3 4 5 5 6 6
16 16 16 16 15 15 15 14 14 13 13 14 14 16 16 16 16 17 18 18 19 20 19 18 17 16 15 13 12 11 11 11 12 13 16 19 22 22 21 21 20 19 19 19 18 17 16 15 15 14 13 13 12 11 10 9 8 6 5 4 5 6 6 6 6 7 7 7 7 7 6 5 5 4 3 2 1 0 1 1 2 2 3 3 3
16 16 15 15 14 13 12 11 11 10 10 11 13 14 15 15 16 17 17 18 19 19 18 17 15 14 13 12 11 10 11 12 12 12 15 18 22 23 23 22 21 21 20 20 19 18 17 17 16 15 15 14 13 12 11 10 10 9 8 7 7 8 9 9 9 9 10 10 10 10 10 9 8 7 6 5 4 3 3 2 2 2 3 3 3
15 15 13 12 12 10 9 9 9 9 8 9 11 12 14 15 16 17 17 18 17 16 15 14 11 10 10 9 9 10 12 11 11 12 15 18 21 22 23 22 22 21 21 21 20 19 19 18 17 17 16 16 14 12 11 12 12 12 11 10 10 10 11 11 11 12 12 13 12 12 12 12 11 10 9 8 8 7 6 4 4 4 4 4 4
15 14 12 10 10 9 9 9 8 8 7 8 9 11 13 14 15 17 17 17 16 14 13 11 9 8 8 8 10 11 11 11 11 13 15 17 19 21 22 22 22 22 22 22 21 20 20 19 18 18 18 17 15 13 13 14 14 14 13 12 12 13 13 13 14 14 15 15 15 14 14 14 14 13 12 11 10 9 8 7 6 6 6 6 6
15 12 11 10 9 9 9 8 8 7 7 8 9 11 12 14 15 16 16 15 14 13 12 10 8 7 8 9 10 10 10 10 11 13 15 16 17 20 22 22 22 22 22 22 22 21 21 20 20 19 19 18 16 14 14 15 16 16 15 14 13 13 14 14 14 15 16 17 17 17 16 16 15 15 15 14 13 12 11 10 9 9 8 8 8
14 11 11 11 10 10 9 8 8 7 8 9 9 11 12 14 15 15 15 14 13 13 12 10 8 6 6 8 8 9 9 10 11 13 14 15 16 18 20 22 22 22 22 23 22 22 21 21 21 20 20 18 17 16 16 16 17 18 18 16 14 14 14 14 14 15 16 17 18 18 18 17 16 16 16 16 15 14 13 12 12 11 11 10 10
13 12 12 12 11 9 9 9 9 9 9 9 10 12 14 14 15 15 14 13 13 12 11 9 8 7 6 6 7 7 8 10 11 12 13 14 14 16 18 20 21 22 22 23 22 22 22 21 21 21 20 19 18 16 16 17 18 19 19 18 16 15 15 16 16 16 16 17 18 16 15 15 16 16 16 16 16 15 15 14 14 13 13 12 12
13 12 12 11 10 9 9 11 11 11 10 11 11 13 14 14 15 14 14 13 13 12 11 10 9 7 7 7 7 8 9 11 12 12 13 14 14 14 16 18 20 21 22 23 23 22 22 22 22 22 21 19 18 17 17 18 19 20 20 18 16 14 14 14 15 15 15 16 16 16 15 15 14 15 15 15 15 15 15 15 14 14 14 14 13
14 12 12 13 12 12 12 14 14 13 12 12 13 13 13 14 15 14 14 14 13 12 12 12 11 9 8 8 9 9 10 12 13 13 12 12 13 13 13 15 18 20 21 22 22 22 22 22 22 21 20 19 18 17 17 18 19 19 19 17 15 13 12 12 13 13 13 14 14 15 15 15 14 14 14 14 14 14 14 14 14 14 15 14 14
17 16 16 16 14 14 15 16 17 15 14 14 14 14 14 14 15 14 13 13 13 13 12 13 12 10 10 11 11 10 11 12 14 14 13 12 12 13 13 14 16 18 19 21 22 22 22 22 21 20 19 18 17 16 17 17 18 18 18 16 14 12 11 11 11 11 11 11 11 12 13 14 14 13 13 13 13 13 13 13 14 14 14 14 14
19 18 17 16 14 15 16 16 17 17 16 16 15 15 14 15 15 13 13 13 13 13 12 11 11 10 11 12 12 11 11 13 14 14 13 12 12 13 14 14 15 16 17 20 21 22 21 19 19 18 17 17 16 15 16 16 16 16 16 15 12 10 11 11 11 10 11 10 10 11 12 13 13 13 13 13 13 13 12 12 13 13 13 14 14
13 16 15 15 14 14 17 17 16 17 17 17 17 16 15 15 15 14 15 14 13 13 11 10 10 10 10 11 11 11 12 14 14 13 13 13 13 14 14 15 15 15 16 18 20 19 17 16 17 16 15 15 15 15 15 15 15 15 14 12 10 9 11 12 11 10 11 12 12 12 12 13 13 13 14 14 14 13 13 12 12 12 12 13 13
11 15 15 16 16 16 19 19 17 16 18 19 19 18 16 16 16 16 17 15 14 13 11 10 10 10 10 10 11 12 13 14 14 13 13 14 14 15 16 16 15 15 15 16 19 18 14 15 15 14 14 15 15 15 15 14 13 12 12 11 9 9 11 12 10 10 11 11 12 12 13 13 13 14 14 14 14 13 12 12 11 11 11 11 11
13 15 17 20 20 20 21 21 21 19 21 23 21 19 17 16 17 17 16 15 14 13 12 11 10 9 10 10 12 13 13 13 14 13 13 14 15 16 17 17 16 16 16 16 18 16 14 14 14 14 15 15 14 14 13 12 11 10 10 10 9 9 10 10 10 9 10 10 10 11 12 13 14 14 14 14 13 12 11 10 10 10 10 9 9
14 15 18 23 24 25 24 22 22 22 24 24 21 19 17 17 18 17 16 15 14 13 12 12 11 10 10 10 12 12 12 13 14 13 13 14 15 16 17 17 18 17 16 17 17 15 13 14 15 15 14 14 13 12 12 12 11 10 9 9 9 9 9 10 9 9 9 8 9 10 10 12 13 13 13 13 13 12 12 11 9 9 8 8 8
15 15 19 24 26 28 26 23 21 22 24 23 20 19 19 19 19 17 16 16 14 13 13 13 11 10 11 11 12 12 12 13 14 14 14 15 16 16 17 16 17 17 15 16 16 15 16 17 16 14 14 13 13 12 12 11 11 10 9 9 9 9 9 9 8 8 8 7 8 8 8 9 10 10 11 11 12 11 12 11 9 8 7 6 7
15 18 22 23 24 25 25 24 21 21 22 22 20 19 20 21 21 19 18 16 14 12 12 11 10 10 11 11 12 12 12 13 13 14 14 15 15 16 17 17 17 16 15 15 16 16 17 17 16 14 14 14 13 12 11 10 10 9 9 8 8 8 9 9 8 7 7 6 7 7 7 7 7 8 9 10 9 9 9 9 9 8 6 5 5
18 20 21 21 21 22 23 22 19 20 21 20 19 19 21 23 22 20 19 16 13 12 11 10 10 11 11 11 12 13 13 13 14 14 14 14 14 15 16 17 17 16 15 16 16 15 17 17 16 14 14 14 13 12 11 10 10 9 9 8 8 7 7 8 7 6 6 5 6 6 5 6 6 6 8 9 8 7 7 7 7 6 5 5 4
19 18 19 21 19 18 19 19 18 21 21 18 19 21 23 23 22 20 18 15 13 11 11 10 10 10 10 11 12 12 13 14 14 14 13 13 14 15 16 16 17 16 14 15 16 15 17 16 15 14 13 13 12 11 11 10 10 10 9 7 7 6 6 7 6 5 6 5 5 5 4 5 5 5 6 7 7 6 6 7 6 5 5 4 3
16 12 17 18 13 13 15 14 17 22 20 18 21 23 22 21 19 18 16 14 13 11 11 10 10 10 10 11 12 12 13 14 14 13 13 13 14 15 16 16 16 15 13 15 16 16 16 15 14 14 13 12 12 11 10 10 11 11 9 7 7 6 5 6 6 6 6 6 6 4 4 4 4 4 4 5 6 6 6 6 6 5 4 3 2
13 13 17 19 18 19 13 10 18 24 23 19 21 22 20 19 17 15 15 14 12 11 11 11 11 10 10 12 13 13 14 14 14 14 13 14 15 15 16 15 14 14 14 16 17 17 17 15 14 14 13 13 13 12 11 11 11 10 9 8 7 5 5 6 7 7 6 6 6 5 5 5 4 4 3 4 5 5 6 6 5 5 4 3 2
13 16 18 18 20 22 19 15 16 18 17 15 19 20 18 20 18 15 14 12 12 12 13 14 13 12 11 12 14 14 14 14 15 15 14 15 15 15 16 14 13 14 15 16 17 18 17 15 14 14 14 14 14 14 14 12 11 10 9 8 7 6 5 6 6 6 6 5 5 5 5 5 3 4 3 3 4 3 4 5 4 3 3 2 2
14 17 16 14 16 19 19 18 18 12 4 7 17 22 22 21 18 16 14 12 12 13 14 16 15 13 12 12 14 14 15 15 15 16 15 15 15 16 16 14 13 15 15 16 17 17 16 16 14 13 14 15 15 16 15 13 12 11 9 7 6 6 5 5 5 5 5 6 5 6 6 5 4 4 4 4 5 4 4 4 3 3 3 3 2
15 17 14 11 13 14 15 17 21 17 11 6 4 14 20 21 19 17 15 12 12 12 13 14 14 13 12 12 14 15 16 17 17 17 17 16 16 16 16 15 15 16 16 16 18 18 17 16 14 13 14 15 15 16 15 14 12 10 9 7 6 5 4 4 5 5 5 6 6 7 8 7 6 5 4 4 5 5 4 4 3 3 3 2 2
13 15 12 11 13 11 11 15 18 15 12 10 9 5 7 14 18 16 13 11 12 12 11 12 13 12 12 13 15 16 17 18 18 17 17 17 17 17 16 16 16 16 17 17 17 16 15 15 15 14 15 15 16 16 15 13 11 9 8 7 6 5 5 4 4 5 5 5 7 8 9 8 8 7 5 4 4 5 4 3 3 3 3 2 2
13 13 11 11 12 11 9 11 14 14 11 9 9 7 4 8 14 13 12 12 12 13 12 13 14 14 14 15 16 17 18 19 18 18 18 18 18 18 17 17 16 16 16 16 14 12 12 13 13 14 14 14 15 14 13 11 9 8 8 7 7 6 5 5 5 5 5 6 7 8 9 9 8 8 8 7 6 5 4 3 3 2 2 2 2
13 12 12 10 11 11 9 7 8 10 11 9 7 4 3 6 10 11 10 10 12 15 16 16 16 16 16 16 16 17 19 19 19 19 19 18 17 18 18 17 16 16 15 13 12 11 10 10 11 12 13 14 13 12 11 9 8 8 8 8 8 7 6 6 5 5 6 6 6 7 8 9 8 8 9 8 7 6 5 4 3 3 2 2 2
13 12 11 10 9 9 7 7 7 8 9 8 7 3 3 5 6 8 8 10 13 16 18 18 18 17 16 16 17 18 19 20 20 19 19 17 17 18 17 16 16 16 14 13 11 10 9 9 10 12 13 14 13 12 10 9 8 8 8 9 8 7 6 6 6 6 6 7 6 6 7 8 7 8 8 7 6 5 4 4 3 2 2 2 1
12 13 12 9 8 7 6 7 7 5 3 3 4 1 4 5 5 7 9 12 14 16 17 18 18 17 17 17 18 18 19 20 20 19 18 18 18 17 16 17 17 15 14 13 11 11 10 10 11 13 14 14 13 12 11 10 9 8 8 8 8 7 7 6 6 6 5 6 7 7 7 8 7 7 7 6 5 5 5 5 4 2 2 2 2
13 15 13 8 6 6 5 5 5 4 3 3 2 4 7 7 7 8 10 12 14 15 16 17 17 17 17 18 19 20 20 20 20 19 18 18 17 16 16 17 16 14 13 13 12 12 12 12 12 13 13 13 13 13 12 11 11 10 8 8 9 9 8 7 7 6 6 7 7 7 8 8 8 8 7 6 6 6 7 6 4 3 3 4 4
Wind_Direction
176 181 182 184 188 190 191 191 194 192 190 189 187 188 185 180 170 160 154 147 142 140 135 127 123 124 122 120 118 115 111 107 104 100 98 94 92 88 85 81 76 73 70 70 70 69 68 66 64 63 64 65 66 67 72 81 90 95 108 119 123 128 126 123 122 117 111 106 105 105 99 94 89 84 75 64 52 46 47 50 61 74 94 97 87
176 188 189 189 191 192 193 194 197 196 195 193 191 190 188 183 174 168 162 154 147 142 136 130 127 128 127 124 122 119 116 111 109 105 101 97 92 89 86 83 78 74 71 71 72 70 69 67 64 62 62 63 66 68 75 82 91 102 114 117 120 125 120 119 119 117 118 117 111 103 93 86 79 76 68 57 49 49 54 58 66 71 85 92 89
171 182 191 195 194 193 195 197 199 200 199 197 195 193 191 186 179 174 169 162 153 145 138 136 133 131 131 130 127 124 121 118 114 110 105 100 94 91 88 85 81 77 75 75 74 72 70 68 64 62 62 62 64 66 72 78 86 101 114 116 119 120 115 116 119 121 120 115 111 107 98 86 74 69 59 53 51 56 63 67 69 71 77 83 86
169 174 191 198 198 196 196 199 201 202 202 200 199 196 193 189 183 180 175 168 158 150 144 142 138 134 133 135 134 131 128 126 121 115 109 103 98 94 91 88 85 82 80 78 76 74 71 68 64 62 62 62 63 64 68 74 81 90 100 110 118 121 125 128 125 118 106 100 97 98 95 87 76 66 58 59 62 66 71 74 74 74 76 79 83
182 183 191 200 203 201 197 199 202 204 204 204 201 198 196 192 188 186 181 173 166 158 152 148 142 138 137 143 144 141 137 133 129 122 114 108 104 98 95 91 89 86 83 81 78 76 73 69 65 63 63 63 63 64 67 71 78 83 87 95 100 100 105 111 112 106 98 94 88 85 84 84 79 71 69 70 72 75 76 78 79 79 79 80 82
198 199 199 201 204 204 200 199 202 205 206 207 204 201 199 196 194 191 185 177 172 166 160 154 149 148 145 151 155 154 148 141 137 130 121 115 110 104 98 96 94 90 87 84 82 79 75 71 68 65 63 63 63 64 66 69 74 78 79 82 82 81 84 92 98 99 95 90 89 88 85 85 82 78 78 78 78 78 79 81 82 81 81 81 83
208 211 205 199 202 205 203 201 202 205 207 208 206 203 202 201 200 195 188 181 177 172 166 161 159 161 158 163 168 166 158 149 145 138 129 123 117 111 105 101 100 96 91 88 86 83 79 75 71 68 66 64 65 66 67 68 72 76 78 79 79 79 84 91 94 94 93 92 92 91 87 83 81 79 80 81 82 82 82 83 83 82 81 80 81
213 215 207 199 199 203 205 204 204 205 207 209 208 205 205 206 205 199 191 185 180 176 172 170 173 177 176 176 180 175 165 159 154 146 138 132 126 120 116 111 107 102 97 94 92 88 84 80 75 71 69 67 67 68 68 69 73 78 80 83 85 84 86 89 92 93 93 93 91 88 85 82 80 81 83 84 84 85 85 85 85 84 83 81 81
215 215 208 202 198 201 205 207 206 206 208 209 208 207 208 210 209 202 194 188 184 179 178 180 184 189 190 187 186 179 173 171 165 157 148 141 138 133 127 121 114 109 105 101 99 95 90 85 80 76 72 71 70 70 70 72 75 81 85 87 90 91 91 91 93 93 93 91 88 85 83 82 82 82 83 83 83 84 85 85 85 85 84 83 82
218 218 213 206 200 200 204 208 209 208 208 209 209 209 211 212 211 206 199 193 188 185 184 188 192 196 198 195 191 185 182 180 176 169 158 152 149 144 136 129 122 119 117 111 107 102 97 92 86 81 78 76 75 74 73 73 76 83 86 87 90 92 93 92 92 92 91 88 86 84 82 82 82 82 82 82 82 83 84 83 84 84 84 84 83
222 222 220 212 204 202 205 208 210 209 209 210 210 211 213 212 211 208 204 199 196 193 192 194 196 198 200 201 198 193 190 186 183 180 168 162 158 152 145 139 135 132 130 123 117 112 107 101 95 90 85 85 82 79 76 76 79 83 84 86 88 89 90 90 89 89 88 87 85 83 82 82 82 82 82 83 83 83 83 82 82 82 83 83 83
226 227 226 219 211 206 207 208 210 211 210 212 212 213 213 213 212 209 207 205 203 201 198 197 199 200 202 204 204 201 197 192 190 186 176 172 167 160 154 151 150 145 141 136 128 121 117 111 106 100 95 95 90 86 83 82 82 83 85 86 86 87 88 87 87 86 85 85 84 83 82 82 82 83 84 84 84 83 83 82 82 82 82 82 83
228 230 229 224 217 211 208 209 210 211 212 213 214 214 214 214 213 211 211 210 208 206 203 201 202 203 203 207 208 205 203 199 196 192 184 179 175 168 162 161 163 157 151 147 140 132 126 122 117 113 109 108 101 93 91 88 84 86 87 86 87 89 88 88 88 87 85 84 83 83 82 82 83 83 84 84 83 83 83 83 83 83 83 83 83
229 230 229 224 219 213 209 208 209 210 212 214 215 215 216 216 216 216 215 212 210 209 208 206 206 206 206 208 209 208 206 204 201 198 191 185 181 175 169 169 171 166 162 158 152 145 137 132 127 125 125 122 112 102 98 94 90 91 90 88 91 93 92 91 90 88 86 85 85 85 83 82 83 83 83 83 83 82 82 83 84 84 83 83 83
227 227 224 221 218 213 208 206 208 210 212 214 216 217 218 220 221 220 218 215 213 212 211 210 210 210 209 209 210 209 208 207 205 203 197 189 185 182 177 175 176 173 171 169 165 159 150 144 139 139 140 135 124 115 109 102 98 96 94 95 97 97 96 94 92 90 88 86 86 85 84 82 81 82 83 82 82 82 82 83 83 83 83 82 82
225 222 216 213 211 209 207 206 207 209 212 215 216 218 221 223 224 222 220 216 215 214 214 213 213 213 213 211 210 209 209 209 208 206 201 193 189 187 185 182 179 178 178 179 177 171 163 158 153 155 156 149 142 136 128 118 110 104 99 100 102 100 99 98 95 92 89 88 87 86 87 85 82 80 81 82 82 83 83 83 83 83 82 81 81
222 217 208 202 200 202 204 206 208 210 212 214 217 220 222 225 226 223 220 218 217 216 216 215 214 215 214 212 211 209 208 211 210 208 205 197 191 192 192 187 184 183 184 185 185 182 176 171 169 172 169 163 161 158 154 141 125 115 110 107 107 109 106 103 100 97 94 92 90 90 90 88 86 82 80 81 81 82 82 82 82 82 81 80 79
217 211 203 197 194 197 201 205 210 212 214 215 218 221 224 228 228 225 223 221 219 219 218 217 215 216 216 215 213 210 209 212 212 210 207 201 194 196 198 192 188 187 188 190 190 190 187 183 183 186 182 178 177 176 180 170 146 131 125 119 118 122 118 107 103 104 100 96 95 94 92 90 88 83 80 79 78 77 77 78 78 79 79 78 77
206 202 198 193 191 196 200 204 207 211 215 217 221 225 229 232 231 230 229 227 224 222 219 217 216 216 217 217 216 213 213 214 215 213 209 204 198 200 201 197 193 190 191 194 195 195 195 194 194 197 196 193 191 192 198 195 173 151 140 139 144 150 148 129 108 107 104 102 99 93 92 90 89 85 80 76 75 75 74 74 74 74 75 75 74
196 193 192 187 188 195 199 201 203 206 211 215 221 227 232 234 234 234 233 231 227 224 220 217 215 215 217 218 218 217 216 216 216 215 212 208 203 202 203 202 199 195 195 198 199 200 201 201 202 205 206 205 205 206 210 213 198 167 155 165 183 198 198 196 198 199 183 147 128 108 85 74 82 88 82 74 72 71 71 71 70 69 68 69 69
196 191 189 187 189 194 196 198 200 205 210 215 221 226 231 234 235 235 232 230 227 223 219 215 213 213 215 217 219 219 218 219 218 216 215 211 207 205 204 205 203 200 199 201 203 204 206 206 207 210 212 214 216 218 221 226 221 189 175 194 217 237 240 234 238 245 250 253 254 257 271 284 289 341 101 91 72 61 62 60 60 60 60 60 61
202 195 191 188 190 192 192 194 200 206 212 219 227 231 235 236 237 236 232 229 227 223 218 214 211 211 213 215 218 221 223 222 218 217 216 213 208 206 205 205 205 204 203 204 206 207 209 210 211 214 215 218 222 226 231 237 239 224 217 240 253 254 256 259 259 257 256 259 261 260 262 264 269 268 251 240 244 285 0 8 22 27 31 37 42
206 199 194 191 190 189 187 188 195 203 214 224 232 236 237 237 237 235 233 230 228 223 219 213 209 210 211 215 221 224 228 225 222 219 218 215 209 207 207 207 206 206 207 207 208 209 211 213 215 217 219 221 224 230 238 245 249 245 242 255 266 263 261 264 266 265 263 262 261 260 260 259 261 262 260 258 255 256 264 284 304 320 328 335 342
205 197 194 194 189 180 179 182 188 197 209 223 232 237 238 237 237 235 233 230 226 220 214 210 209 214 214 221 229 230 230 227 226 222 220 217 210 208 210 210 208 208 210 210 211 211 213 216 217 220 222 223 226 233 241 247 251 252 251 257 269 272 267 267 269 270 271 269 265 262 262 262 260 258 260 260 260 260 256 264 276 286 295 297 300
202 195 191 190 187 180 184 188 192 202 213 227 237 240 238 236 236 234 231 226 220 211 208 207 212 223 227 231 235 234 233 230 226 221 220 218 212 210 212 212 210 209 211 213 213 214 215 218 220 222 224 225 229 234 240 248 254 256 257 261 272 274 269 267 269 271 274 274 271 266 262 261 260 258 258 259 260 262 260 262 265 269 277 278 282
200 194 194 194 196 195 199 201 206 219 231 240 245 242 237 234 234 232 228 223 215 209 208 207 210 225 236 237 237 234 231 230 225 219 219 218 213 211 213 215 213 211 212 213 214 215 217 220 221 223 225 228 231 234 239 248 256 259 259 262 273 274 270 271 272 271 272 272 272 270 266 260 259 260 259 258 258 260 262 262 261 265 269 270 273
202 198 208 209 211 210 211 218 225 236 249 258 259 246 235 231 231 229 223 218 212 206 201 198 198 206 223 231 232 228 226 230 225 217 216 216 212 211 214 216 215 213 212 214 215 217 219 221 224 226 228 231 234 235 240 249 255 260 260 262 271 274 271 275 277 275 271 270 270 271 269 261 258 261 261 260 259 259 260 260 260 263 264 265 269
207 211 218 218 220 221 227 239 243 248 254 257 256 242 232 229 228 223 216 210 205 201 195 191 194 195 204 219 228 231 234 235 226 217 215 213 210 211 215 216 216 214 214 215 216 218 220 224 227 228 230 234 237 238 243 250 255 260 263 267 274 277 277 277 276 275 272 269 269 270 270 264 259 261 262 261 260 260 260 259 259 261 262 263 266
207 217 219 224 228 231 237 245 248 248 249 249 247 237 228 227 224 218 211 206 203 204 206 207 208 207 209 222 237 247 247 240 231 223 218 215 210 210 215 217 217 215 215 215 216 218 221 224 228 230 233 236 238 239 243 250 255 259 264 270 277 278 280 279 274 274 274 269 268 270 269 265 261 261 263 261 260 261 261 260 258 259 261 263 264
205 213 217 225 226 231 236 241 243 242 242 242 240 231 223 224 220 213 213 216 214 210 215 218 217 219 224 235 243 250 252 244 236 230 222 217 213 209 209 213 216 216 216 215 215 218 221 225 229 232 235 238 239 239 243 250 255 259 264 269 275 275 276 278 274 275 275 269 266 268 265 263 262 262 262 260 260 261 262 261 259 259 261 262 263
207 211 216 223 225 234 236 239 241 239 238 236 232 224 216 215 213 210 215 220 216 208 210 216 217 224 233 238 240 247 254 247 240 235 226 220 216 211 207 206 210 213 215 216 215 218 222 226 230 233 236 239 239 239 243 248 253 259 263 265 269 272 271 271 272 273 274 270 265 265 262 261 263 263 261 260 261 263 262 261 260 261 261 262 264
213 219 219 220 231 245 244 243 244 239 237 235 228 219 211 207 206 204 205 206 205 201 203 210 215 224 232 233 236 246 253 245 240 237 228 219 214 212 209 205 205 206 210 214 215 218 221 225 231 235 237 240 240 239 240 244 248 254 259 262 264 266 266 267 268 270 271 270 268 267 265 264 265 264 263 263 265 266 264 262 261 261 262 263 265
225 240 240 233 240 249 245 243 244 240 236 231 225 216 207 204 203 197 194 199 204 202 202 213 218 221 227 232 238 247 250 243 237 236 229 218 213 212 209 207 205 205 206 210 213 213 216 222 228 231 233 236 236 235 239 241 243 246 249 252 257 260 260 263 266 269 269 269 270 269 267 267 267 266 265 268 269 268 267 263 261 261 262 265 266
253 265 275 267 259 255 252 247 241 240 235 228 220 213 205 201 200 194 192 200 205 203 205 215 219 221 230 241 246 251 250 240 232 233 231 220 214 211 208 207 206 204 202 207 213 206 202 214 220 223 225 228 229 232 237 239 237 238 239 241 251 256 253 255 262 267 267 266 267 267 266 265 265 266 269 272 271 268 266 263 261 261 262 263 265
264 272 281 278 270 263 261 254 241 237 234 226 215 207 201 197 195 192 195 201 204 203 207 215 220 228 239 247 250 252 246 233 227 230 231 222 216 212 209 210 209 206 201 205 214 207 197 207 214 217 222 227 227 226 230 232 230 231 237 241 249 253 252 253 258 264 265 266 267 266 266 265 264 266 268 270 269 267 265 262 259 258 259 262 265
268 271 275 278 279 275 268 256 243 236 230 222 212 202 194 192 191 191 196 201 203 202 208 216 222 231 239 245 248 247 237 225 225 229 230 224 216 212 212 213 210 207 204 204 212 211 209 218 220 217 218 221 222 219 222 228 228 230 238 244 248 252 254 256 259 264 266 265 265 266 267 266 265 264 265 264 263 262 259 256 252 253 259 266 274
272 272 272 274 276 275 268 257 246 239 229 218 214 204 189 189 189 190 195 197 201 204 214 221 224 231 236 241 242 236 226 221 224 227 229 226 219 214 212 210 206 205 206 207 214 218 222 227 223 213 209 216 220 219 221 225 225 227 235 243 248 251 255 260 261 261 257 256 260 263 266 268 267 264 261 260 257 254 253 248 240 242 254 270 282
273 266 264 268 271 270 262 254 242 234 226 212 214 210 193 189 187 189 193 194 201 209 222 228 227 234 237 238 235 228 223 220 224 225 226 226 222 215 211 209 207 207 210 214 221 224 224 222 216 206 205 213 219 221 223 226 226 226 229 237 243 247 255 258 254 251 247 252 261 263 267 270 271 267 257 252 248 244 246 240 228 229 243 264 279
265 261 263 269 267 259 251 249 240 233 228 211 211 210 197 190 187 190 193 194 204 217 230 235 233 238 240 237 229 224 224 220 223 226 223 222 218 210 209 213 212 212 215 219 222 221 218 214 208 206 207 212 216 217 222 225 224 221 222 231 238 244 258 256 247 243 245 254 261 266 272 268 271 272 256 246 241 233 229 223 220 225 235 252 263
262 269 286 285 269 261 257 253 252 249 236 213 207 205 195 190 188 190 194 196 205 219 231 236 236 238 238 234 226 223 223 220 221 225 220 215 212 207 211 218 216 217 219 218 217 215 215 211 204 204 207 213 217 215 217 219 217 213 217 230 239 245 257 255 244 237 242 251 258 268 269 258 264 267 251 240 229 215 206 204 213 224 231 240 243
271 292 319 325 322 308 281 263 273 263 236 213 208 203 194 191 190 189 193 199 204 217 231 238 239 238 235 230 223 220 217 215 216 215 211 209 208 207 212 217 217 217 213 209 211 215 220 218 210 205 207 214 220 220 219 219 215 210 214 226 233 240 246 247 240 232 238 244 243 248 243 240 257 255 240 224 206 196 194 197 206 217 225 229 236
291 311 325 337 346 339 321 296 285 257 231 220 210 199 190 188 190 192 195 199 203 216 227 231 236 235 231 225 221 218 211 210 209 203 199 201 202 204 210 215 216 213 206 207 212 216 223 223 215 209 210 217 222 224 220 218 219 216 217 220 221 233 241 245 242 233 236 238 232 229 225 230 244 244 226 195 186 189 195 197 202 209 221 234 259
303 314 315 315 322 332 340 332 295 250 224 223 207 190 183 186 190 192 194 201 206 215 221 223 229 231 227 221 220 219 212 207 203 197 194 196 199 204 210 213 212 211 210 212 215 220 224 222 215 212 215 219 224 226 220 216 220 221 223 221 219 228 232 239 240 235 235 229 223 224 221 222 227 225 213 167 158 189 205 195 197 205 225 249 280
310 319 318 316 320 325 333 334 321 316 320 247 212 189 180 181 186 192 196 207 215 220 224 224 228 231 230 224 220 219 214 207 201 197 195 197 202 208 214 214 210 212 212 212 217 222 224 220 216 216 220 220 221 224 221 217 217 219 220 218 218 222 224 235 238 235 234 223 220 219 211 215 221 211 197 159 153 194 213 193 194 201 220 245 269
311 317 314 322 331 329 331 331 330 347 24 9 241 189 186 185 187 195 199 212 228 233 233 231 233 237 238 230 221 216 212 207 201 198 197 200 206 211 218 218 212 213 213 215 221 223 221 222 222 222 224 221 218 220 219 214 212 213 215 215 216 213 217 238 242 242 241 226 221 215 206 210 212 198 187 172 169 191 207 195 197 205 211 223 231
307 312 312 321 328 333 341 335 333 357 38 41 41 93 182 198 198 197 199 217 239 244 241 238 237 239 237 228 221 214 209 205 201 201 201 203 208 212 217 216 211 213 217 220 224 224 224 228 227 225 225 222 219 219 216 212 209 208 213 219 222 216 215 228 235 247 252 236 223 215 207 205 202 186 177 194 194 186 194 193 194 205 207 200 191
304 309 312 316 319 323 339 339 332 346 11 35 47 61 115 188 196 193 201 220 234 237 232 231 231 229 226 224 221 215 207 203 200 202 206 208 210 211 211 213 213 216 220 220 218 219 223 222 220 220 220 218 218 219 216 214 209 206 209 215 224 225 222 228 234 240 246 243 232 222 210 201 199 188 181 197 202 186 189 194 189 200 205 204 200
300 304 307 307 309 311 319 335 333 334 345 4 14 17 133 174 192 194 204 222 234 237 227 222 225 225 223 222 221 216 207 202 201 203 208 211 210 210 210 213 215 215 217 215 207 210 214 206 206 210 212 214 216 215 215 213 208 206 207 210 219 223 219 226 233 234 242 246 239 231 220 206 198 194 192 198 200 190 193 201 202 208 215 216 207
290 289 293 295 295 296 300 312 319 321 327 340 351 341 172 173 200 212 219 227 237 240 230 223 222 224 225 223 220 216 208 204 203 204 208 211 211 211 211 213 215 212 213 212 206 211 213 204 204 205 208 215 216 213 212 210 207 207 210 212 215 217 218 224 225 225 238 238 225 220 225 220 207 200 199 198 195 195 203 212 221 226 227 232 220
277 281 277 277 280 278 285 300 307 308 322 1 359 318 190 181 203 226 232 235 238 236 229 224 223 224 225 224 221 217 210 206 205 206 209 211 212 212 211 214 217 213 213 213 209 216 217 209 206 205 207 214 217 216 214 213 211 209 211 213 214 215 220 226 223 219 226 226 219 213 215 219 212 203 203 203 200 207 222 230 236 236 242 259 261
255 254 248 241 251 250 247 256 254 236 186 154 166 213 227 232 223 221 227 233 236 231 225 224 226 227 224 223 222 217 212 208 206 208 211 210 210 213 213 216 219 216 215 214 212 216 215 211 211 209 211 215 217 220 221 219 216 211 210 212 214 214 216 221 217 211 209 212 221 225 218 219 219 212 212 212 210 219 230 233 231 235 248 257 262
Height
3159 3160 3161 3162 3163 3164 3165 3166 3167 3168 3169 3170 3170 3171 3172 3173 3173 3174 3175 3175 3176 3176 3176 3176 3176 3175 3175 3175 3175 3175 3175 3175 3175 3175 3175 3175 3175 3175 3175 3174 3173 3172 3172 3171 3170 3170 3169 3168 3167 3165 3164 3163 3162 3161 3160 3160 3159 3160 3161 3161 3161 3160 3160 3160 3161 3161 3161 3161 3161 3161 3161 3161 3161 3161 3161 3162 3161 3161 3160 3159 3159 3158 3158 3158 3157
3159 3160 3161 3162 3163 3163 3165 3166 3167 3168 3169 3169 3170 3171 3172 3173 3174 3174 3175 3175 3176 3176 3176 3177 3177 3176 3176 3176 3175 3175 3175 3175 3175 3176 3176 3176 3176 3176 3175 3175 3174 3173 3173 3172 3171 3171 3170 3169 3168 3167 3166 3164 3163 3163 3162 3161 3161 3162 3162 3162 3162 3162 3162 3162 3162 3162 3162 3161 3161 3162 3162 3162 3162 3162 3162 3162 3162 3161 3160 3160 3159 3159 3159 3158 3158
3158 3159 3160 3161 3162 3163 3164 3165 3166 3167 3168 3169 3170 3171 3172 3173 3174 3174 3175 3175 3176 3177 3177 3177 3177 3177 3177 3176 3176 3176 3176 3176 3176 3176 3176 3176 3176 3176 3176 3176 3175 3174 3174 3173 3172 3172 3171 3170 3169 3168 3167 3166 3165 3164 3164 3163 3163 3163 3163 3163 3163 3163 3163 3163 3163 3163 3163 3162 3162 3163 3163 3163 3163 3163 3163 3162 3162 3161 3161 3161 3160 3160 3160 3159 3159
3158 3159 3160 3160 3161 3162 3163 3165 3166 3167 3168 3169 3170 3171 3172 3173 3174 3174 3175 3175 3176 3177 3177 3177 3177 3177 3177 3177 3177 3177 3177 3177 3177 3177 3177 3177 3177 3177 3177 3176 3176 3175 3175 3174 3173 3173 3172 3171 3170 3169 3168 3167 3166 3166 3165 3165 3165 3165 3165 3164 3164 3164 3164 3164 3164 3164 3164 3164 3164 3164 3164 3163 3163 3163 3163 3163 3162 3162 3162 3161 3161 3161 3160 3160 3160
3157 3158 3159 3159 3160 3161 3162 3164 3165 3166 3167 3169 3170 3171 3172 3173 3173 3174 3174 3175 3176 3177 3177 3177 3177 3177 3177 3177 3177 3177 3177 3177 3177 3177 3177 3177 3178 3178 3177 3177 3177 3176 3176 3175 3174 3174 3173 3172 3172 3171 3170 3169 3168 3168 3167 3167 3167 3167 3166 3166 3166 3165 3165 3165 3165 3165 3165 3165 3165 3165 3165 3164 3164 3164 3164 3163 3163 3162 3162 3162 3162 3162 3161 3161 3160
3157 3158 3158 3159 3160 3160 3162 3163 3164 3166 3167 3168 3169 3170 3171 3172 3173 3174 3174 3175 3176 3176 3177 3177 3177 3177 3178 3178 3177 3177 3177 3177 3177 3177 3178 3178 3178 3178 3178 3178 3177 3177 3177 3176 3175 3175 3174 3174 3173 3172 3171 3171 3170 3169 3169 3169 3168 3168 3168 3167 3167 3167 3166 3166 3166 3166 3166 3166 3166 3166 3166 3165 3164 3165 3164 3164 3164 3163 3163 3163 3162 3162 3162 3162 3161
3156 3157 3157 3158 3159 3160 3161 3162 3163 3165 3166 3167 3168 3170 3171 3172 3172 3173 3174 3174 3175 3176 3176 3177 3177 3177 3177 3177 3177 3177 3178 3178 3178 3178 3178 3178 3178 3179 3179 3178 3178 3178 3178 3177 3176 3176 3175 3175 3174 3174 3173 3172 3172 3171 3171 3170 3170 3170 3169 3169 3168 3168 3168 3168 3167 3167 3167 3167 3167 3167 3166 3166 3165 3165 3165 3165 3165 3164 3164 3163 3163 3163 3163 3163 3162
3155 3156 3157 3157 3158 3159 3160 3161 3162 3164 3165 3166 3167 3169 3170 3171 3171 3172 3173 3174 3174 3175 3176 3176 3176 3177 3177 3177 3177 3177 3178 3178 3178 3178 3178 3179 3179 3179 3179 3179 3179 3179 3179 3178 3178 3177 3177 3176 3175 3175 3174 3174 3173 3173 3173 3172 3172 3172 3171 3171 3170 3170 3170 3169 3169 3169 3169 3169 3168 3168 3168 3167 3167 3167 3167 3166 3166 3165 3165 3164 3164 3164 3164 3164 3163
3155 3155 3156 3157 3157 3158 3159 3160 3161 3162 3164 3165 3167 3168 3169 3170 3170 3171 3172 3173 3174 3174 3175 3176 3176 3176 3176 3177 3177 3177 3177 3178 3178 3179 3179 3179 3179 3180 3180 3180 3180 3180 3179 3179 3179 3178 3178 3177 3177 3176 3176 3175 3175 3175 3174 3174 3174 3173 3173 3173 3172 3172 3172 3171 3171 3171 3170 3170 3170 3169 3169 3168 3168 3168 3168 3167 3167 3166 3166 3166 3166 3165 3165 3165 3165
3154 3154 3155 3155 3156 3156 3157 3158 3160 3161 3163 3165 3166 3167 3168 3168 3169 3170 3172 3173 3173 3174 3174 3175 3175 3175 3176 3176 3177 3177 3177 3177 3178 3179 3179 3179 3180 3180 3180 3180 3180 3180 3180 3180 3179 3179 3179 3178 3178 3177 3177 3177 3176 3176 3176 3176 3175 3175 3175 3175 3175 3174 3174 3174 3173 3173 3172 3172 3171 3171 3170 3170 3170 3170 3169 3169 3169 3168 3168 3167 3167 3167 3167 3166 3166
3152 3153 3153 3154 3154 3155 3156 3157 3159 3161 3163 3164 3165 3166 3166 3167 3169 3170 3171 3172 3173 3173 3173 3174 3174 3175 3175 3176 3176 3176 3177 3177 3178 3178 3179 3179 3180 3180 3181 3181 3181 3181 3181 3180 3180 3180 3179 3179 3179 3179 3178 3178 3178 3177 3177 3177 3177 3177 3177 3177 3176 3176 3176 3176 3175 3175 3174 3173 3173 3172 3172 3172 3172 3172 3172 3171 3171 3171 3170 3169 3169 3169 3168 3168 3168
3150 3151 3151 3152 3153 3154 3155 3157 3159 3161 3162 3163 3164 3164 3165 3167 3168 3169 3170 3171 3171 3172 3172 3173 3174 3174 3175 3175 3175 3176 3176 3177 3177 3178 3179 3179 3180 3180 3181 3181 3181 3181 3181 3181 3181 3180 3180 3180 3180 3179 3179 3179 3178 3178 3178 3178 3178 3178 3178 3178 3178 3178 3178 3177 3177 3177 3176 3175 3174 3174 3174 3175 3175 3174 3174 3173 3173 3173 3172 3171 3171 3171 3171 3170 3170
3149 3149 3150 3151 3152 3154 3155 3157 3159 3160 3161 3162 3162 3163 3165 3166 3167 3168 3169 3169 3170 3170 3171 3172 3173 3174 3174 3174 3175 3175 3175 3176 3177 3178 3179 3179 3180 3180 3181 3181 3181 3181 3181 3181 3181 3181 3181 3181 3181 3180 3180 3179 3179 3179 3179 3180 3180 3180 3180 3180 3180 3179 3179 3179 3179 3178 3177 3177 3176 3176 3177 3177 3177 3176 3176 3175 3175 3174 3174 3173 3173 3173 3173 3172 3172
3147 3147 3148 3150 3151 3153 3155 3156 3158 3159 3160 3160 3161 3163 3164 3165 3166 3167 3167 3168 3169 3170 3171 3172 3172 3173 3173 3173 3174 3174 3175 3175 3176 3177 3178 3179 3179 3180 3181 3181 3181 3181 3182 3182 3182 3182 3182 3181 3181 3181 3181 3180 3180 3180 3180 3181 3181 3181 3181 3181 3181 3181 3181 3181 3180 3179 3178 3178 3178 3178 3179 3179 3179 3178 3178 3177 3176 3176 3176 3175 3175 3175 3174 3174 3173
3145 3146 3147 3148 3150 3152 3154 3155 3156 3157 3158 3159 3161 3162 3163 3164 3165 3165 3166 3167 3168 3169 3170 3171 3171 3172 3172 3172 3173 3173 3174 3174 3175 3176 3177 3178 3179 3180 3180 3180 3181 3182 3182 3182 3182 3182 3182 3182 3182 3181 3181 3181 3181 3181 3181 3181 3182 3182 3182 3183 3182 3182 3182 3182 3181 3180 3180 3180 3180 3180 3180 3180 3180 3180 3179 3179 3178 3178 3178 3177 3177 3176 3176 3175 3175
3144 3145 3146 3148 3149 3151 3152 3153 3154 3156 3157 3158 3160 3161 3162 3162 3163 3164 3165 3166 3167 3168 3169 3170 3170 3170 3171 3171 3171 3172 3173 3173 3174 3175 3176 3178 3179 3179 3179 3180 3181 3181 3182 3182 3182 3182 3182 3182 3182 3182 3182 3182 3182 3181 3181 3182 3182 3183 3184 3184 3183 3183 3183 3182 3182 3182 3181 3181 3182 3182 3181 3181 3182 3181 3181 3180 3180 3180 3179 3179 3178 3178 3178 3177 3177
3143 3144 3146 3147 3148 3149 3151 3152 3153 3154 3156 3157 3159 3159 3160 3161 3162 3163 3164 3165 3166 3167 3168 3168 3169 3169 3169 3170 3170 3171 3172 3172 3173 3174 3175 3177 3178 3178 3179 3179 3180 3181 3181 3182 3182 3182 3182 3182 3182 3182 3182 3182 3182 3182 3182 3182 3183 3184 3185 3185 3184 3184 3184 3184 3183 3183 3183 3183 3183 3183 3183 3182 3182 3182 3182 3182 3182 3181 3181 3180 3180 3179 3179 3179 3178
3143 3144 3145 3146 3147 3149 3150 3151 3152 3154 3155 3156 3158 3158 3159 3160 3161 3161 3163 3164 3165 3166 3166 3167 3167 3167 3168 3168 3169 3170 3170 3171 3172 3173 3174 3175 3177 3177 3178 3179 3179 3180 3181 3181 3182 3182 3182 3182 3182 3182 3182 3182 3182 3182 3182 3182 3184 3185 3185 3185 3185 3185 3185 3184 3184 3184 3184 3184 3184 3184 3184 3184 3183 3183 3183 3183 3183 3182 3182 3182 3181 3181 3180 3180 3180
3142 3143 3145 3146 3147 3148 3149 3150 3152 3153 3155 3156 3157 3158 3158 3159 3160 3161 3162 3163 3164 3164 3165 3165 3166 3166 3167 3167 3168 3168 3169 3170 3171 3172 3173 3174 3175 3176 3177 3178 3179 3179 3180 3181 3181 3182 3182 3182 3181 3182 3182 3182 3182 3182 3182 3182 3184 3185 3186 3186 3185 3185 3185 3185 3185 3185 3184 3184 3184 3185 3185 3185 3184 3184 3184 3184 3184 3184 3183 3183 3182 3182 3181 3181 3181
3142 3143 3144 3145 3146 3147 3148 3150 3151 3152 3153 3155 3156 3156 3157 3158 3159 3160 3161 3162 3162 3163 3163 3164 3164 3165 3165 3166 3166 3167 3168 3169 3170 3170 3171 3173 3174 3175 3176 3177 3178 3179 3179 3180 3181 3181 3181 3181 3181 3181 3182 3182 3182 3181 3182 3183 3184 3185 3186 3186 3185 3185 3185 3186 3185 3185 3185 3185 3185 3185 3185 3185 3185 3185 3185 3185 3184 3184 3184 3183 3183 3183 3182 3182 3182
3141 3142 3143 3145 3145 3146 3147 3149 3150 3151 3152 3153 3154 3154 3155 3156 3158 3159 3159 3160 3161 3161 3162 3162 3163 3163 3164 3165 3165 3166 3167 3168 3168 3169 3170 3171 3172 3174 3175 3176 3177 3178 3179 3179 3180 3180 3181 3181 3181 3181 3181 3181 3181 3181 3182 3183 3184 3186 3186 3186 3186 3186 3186 3186 3186 3185 3185 3185 3185 3185 3185 3185 3185 3185 3185 3185 3184 3184 3184 3184 3183 3183 3183 3183 3183
3141 3142 3143 3143 3144 3145 3146 3148 3149 3150 3151 3152 3152 3153 3154 3156 3157 3157 3158 3159 3159 3160 3160 3161 3161 3162 3163 3164 3164 3165 3166 3166 3167 3168 3169 3170 3171 3172 3173 3175 3176 3177 3178 3178 3179 3180 3180 3180 3180 3181 3181 3181 3181 3181 3182 3183 3185 3186 3186 3186 3186 3186 3185 3185 3185 3185 3185 3185 3185 3185 3185 3185 3185 3185 3185 3185 3184 3184 3184 3184 3184 3184 3184 3183 3183
3140 3141 3142 3143 3143 3144 3146 3147 3148 3149 3150 3151 3151 3152 3153 3154 3155 3156 3157 3158 3158 3159 3159 3160 3161 3161 3162 3163 3163 3164 3165 3165 3166 3167 3168 3169 3170 3171 3172 3173 3175 3176 3176 3177 3178 3179 3179 3180 3180 3180 3180 3180 3181 3182 3183 3183 3184 3185 3185 3186 3186 3185 3185 3185 3185 3184 3184 3184 3184 3184 3184 3184 3184 3185 3185 3184 3184 3184 3184 3184 3184 3184 3184 3183 3183
3140 3141 3141 3142 3143 3144 3145 3147 3147 3148 3149 3150 3150 3151 3152 3153 3154 3155 3156 3157 3157 3158 3159 3159 3160 3161 3161 3162 3163 3163 3164 3165 3165 3166 3167 3167 3168 3169 3171 3172 3173 3174 3175 3176 3177 3178 3178 3179 3179 3180 3180 3180 3181 3182 3183 3182 3183 3184 3184 3185 3185 3185 3184 3184 3184 3183 3183 3183 3183 3183 3183 3184 3184 3184 3184 3184 3184 3183 3183 3183 3183 3183 3183 3183 3183
3140 3140 3141 3142 3143 3145 3145 3146 3147 3147 3148 3148 3149 3150 3151 3152 3152 3154 3154 3156 3156 3157 3158 3158 3159 3160 3161 3161 3162 3163 3163 3164 3165 3165 3166 3166 3167 3169 3170 3171 3172 3173 3174 3175 3176 3176 3177 3178 3178 3179 3179 3180 3181 3182 3182 3181 3182 3182 3183 3184 3184 3184 3183 3183 3183 3182 3182 3182 3182 3182 3182 3182 3183 3183 3183 3183 3183 3183 3183 3183 3183 3183 3183 3183 3183
3140 3141 3142 3143 3144 3145 3145 3145 3145 3146 3147 3147 3148 3149 3150 3151 3151 3152 3154 3155 3155 3156 3156 3157 3158 3159 3160 3160 3161 3162 3162 3163 3164 3164 3165 3165 3166 3168 3169 3169 3171 3172 3173 3173 3174 3175 3176 3177 3177 3178 3178 3179 3181 3182 3181 3181 3181 3181 3181 3183 3183 3183 3182 3182 3182 3181 3181 3181 3181 3181 3181 3181 3181 3181 3182 3182 3182 3182 3182 3182 3182 3182 3182 3182 3182
3141 3143 3144 3144 3143 3144 3144 3144 3144 3145 3146 3147 3147 3148 3149 3150 3150 3152 3153 3154 3154 3155 3155 3155 3156 3157 3158 3159 3160 3161 3162 3162 3163 3163 3164 3164 3166 3167 3167 3168 3169 3170 3171 3172 3173 3174 3175 3176 3176 3177 3177 3179 3180 3181 3181 3180 3180 3179 3180 3181 3182 3182 3182 3181 3181 3180 3180 3179 3179 3179 3179 3179 3180 3180 3180 3180 3180 3181 3181 3181 3181 3181 3181 3181 3181
3142 3144 3143 3142 3142 3143 3144 3143 3144 3144 3145 3146 3147 3147 3148 3149 3150 3151 3152 3153 3153 3154 3154 3154 3155 3156 3157 3157 3159 3160 3161 3161 3162 3162 3163 3164 3165 3166 3166 3167 3168 3169 3170 3171 3172 3173 3174 3175 3175 3176 3176 3178 3179 3180 3180 3179 3179 3178 3178 3180 3181 3181 3181 3180 3180 3179 3178 3178 3178 3178 3178 3178 3178 3178 3178 3179 3179 3179 3180 3180 3180 3180 3180 3180 3181
3144 3143 3142 3142 3143 3143 3143 3143 3143 3143 3144 3145 3145 3146 3147 3148 3149 3150 3151 3151 3152 3153 3154 3154 3154 3155 3155 3156 3158 3159 3160 3161 3161 3162 3162 3163 3164 3164 3165 3166 3167 3168 3169 3170 3171 3172 3173 3174 3174 3174 3176 3177 3178 3179 3180 3178 3178 3178 3178 3179 3180 3179 3179 3179 3178 3178 3177 3177 3177 3176 3176 3176 3176 3177 3177 3177 3177 3178 3178 3178 3179 3179 3179 3179 3180
3144 3143 3142 3142 3142 3142 3142 3142 3141 3142 3143 3143 3144 3145 3146 3147 3148 3149 3150 3150 3151 3152 3152 3153 3153 3154 3154 3155 3157 3158 3159 3159 3160 3161 3161 3162 3163 3163 3164 3165 3166 3167 3167 3168 3169 3170 3171 3172 3173 3174 3175 3176 3177 3178 3179 3178 3177 3177 3177 3178 3178 3178 3178 3178 3177 3177 3176 3176 3176 3175 3175 3175 3175 3175 3176 3176 3176 3176 3177 3177 3177 3178 3178 3178 3179
3141 3141 3141 3141 3141 3141 3142 3141 3141 3141 3141 3142 3143 3144 3145 3146 3147 3149 3149 3150 3150 3151 3152 3152 3152 3152 3153 3154 3156 3157 3158 3158 3159 3160 3160 3161 3162 3162 3163 3164 3165 3166 3167 3167 3168 3169 3169 3171 3172 3173 3174 3175 3176 3177 3177 3176 3176 3176 3176 3177 3177 3177 3177 3177 3176 3176 3175 3175 3174 3174 3174 3174 3174 3174 3175 3175 3175 3175 3176 3176 3176 3177 3177 3177 3177
3138 3139 3138 3140 3141 3143 3143 3141 3141 3140 3140 3141 3142 3143 3144 3145 3146 3148 3149 3149 3150 3150 3151 3151 3151 3151 3152 3153 3154 3155 3156 3157 3158 3159 3159 3159 3160 3161 3162 3163 3164 3165 3165 3166 3167 3167 3169 3171 3171 3172 3173 3173 3174 3175 3175 3175 3175 3175 3175 3176 3176 3176 3176 3176 3175 3175 3174 3174 3174 3173 3173 3173 3173 3173 3174 3174 3174 3174 3174 3175 3175 3175 3176 3176 3176
3138 3139 3140 3141 3142 3143 3143 3141 3140 3139 3139 3139 3141 3142 3144 3145 3146 3148 3149 3149 3149 3150 3150 3150 3150 3151 3151 3152 3153 3154 3155 3156 3157 3157 3158 3158 3159 3160 3161 3162 3163 3164 3164 3165 3165 3166 3169 3171 3170 3171 3172 3172 3173 3174 3174 3174 3174 3175 3175 3175 3175 3175 3175 3175 3174 3174 3173 3173 3173 3173 3172 3172 3172 3173 3173 3173 3173 3173 3173 3174 3174 3174 3175 3175 3175
3138 3139 3141 3143 3143 3143 3142 3141 3139 3138 3138 3138 3139 3142 3143 3144 3145 3147 3148 3149 3149 3149 3149 3149 3149 3150 3150 3151 3152 3152 3153 3155 3156 3156 3156 3157 3158 3159 3160 3161 3162 3163 3164 3164 3164 3167 3171 3171 3169 3170 3171 3171 3172 3173 3173 3173 3173 3174 3174 3174 3174 3174 3174 3174 3174 3173 3173 3172 3172 3172 3171 3171 3172 3172 3172 3172 3172 3172 3172 3173 3173 3174 3174 3174 3174
3137 3138 3140 3141 3142 3142 3141 3140 3138 3137 3136 3136 3138 3140 3142 3144 3145 3146 3148 3148 3148 3148 3148 3148 3149 3149 3149 3150 3151 3151 3152 3153 3154 3154 3155 3156 3157 3157 3158 3160 3161 3162 3164 3164 3163 3166 3171 3171 3170 3170 3170 3170 3171 3172 3172 3172 3173 3173 3173 3173 3173 3173 3173 3172 3173 3172 3171 3171 3171 3171 3171 3171 3171 3171 3171 3171 3171 3171 3171 3172 3172 3173 3173 3173 3173
3134 3135 3137 3139 3141 3140 3139 3138 3136 3136 3135 3135 3137 3139 3141 3144 3144 3146 3147 3147 3147 3147 3147 3147 3148 3148 3148 3150 3150 3150 3151 3152 3153 3153 3154 3155 3156 3156 3157 3159 3160 3161 3163 3163 3162 3166 3169 3170 3170 3169 3169 3169 3170 3171 3171 3171 3172 3172 3172 3172 3172 3172 3171 3171 3171 3171 3170 3170 3170 3170 3170 3170 3170 3170 3170 3169 3169 3170 3170 3171 3172 3172 3172 3173 3173
3131 3132 3134 3136 3138 3137 3136 3134 3134 3134 3134 3136 3138 3139 3141 3143 3144 3144 3145 3146 3146 3146 3146 3147 3147 3147 3148 3149 3149 3149 3150 3151 3152 3152 3153 3154 3154 3155 3156 3157 3159 3160 3162 3162 3161 3164 3167 3169 3169 3168 3168 3168 3169 3170 3170 3171 3171 3171 3171 3171 3171 3171 3170 3170 3170 3170 3169 3169 3169 3169 3169 3169 3169 3169 3169 3169 3169 3169 3169 3170 3171 3171 3172 3172 3172
3130 3129 3129 3132 3133 3132 3131 3130 3131 3132 3132 3134 3137 3139 3141 3141 3142 3142 3143 3144 3144 3145 3145 3146 3147 3147 3147 3148 3148 3149 3149 3150 3151 3152 3152 3152 3153 3154 3155 3157 3158 3160 3161 3161 3161 3163 3166 3167 3168 3167 3167 3168 3168 3169 3169 3170 3170 3170 3170 3170 3170 3170 3170 3169 3169 3169 3169 3169 3169 3169 3169 3169 3168 3168 3168 3168 3168 3168 3168 3169 3170 3171 3171 3172 3172
3128 3126 3126 3128 3128 3128 3127 3127 3130 3130 3129 3133 3136 3138 3138 3138 3139 3140 3141 3142 3143 3143 3144 3145 3146 3146 3146 3147 3148 3148 3149 3149 3150 3151 3151 3151 3152 3153 3155 3156 3157 3159 3160 3160 3161 3163 3165 3166 3167 3167 3167 3167 3168 3168 3169 3169 3169 3169 3169 3169 3169 3169 3169 3169 3169 3169 3168 3168 3168 3169 3169 3168 3168 3167 3167 3167 3167 3168 3168 3169 3170 3170 3171 3171 3171
3126 3127 3128 3128 3127 3128 3127 3127 3129 3128 3128 3132 3135 3134 3135 3136 3137 3138 3140 3141 3142 3143 3143 3144 3145 3145 3146 3146 3147 3148 3148 3149 3150 3150 3150 3151 3152 3153 3154 3156 3157 3158 3159 3160 3160 3162 3164 3165 3165 3165 3166 3167 3167 3167 3168 3168 3168 3168 3169 3169 3168 3168 3168 3168 3168 3168 3168 3168 3168 3168 3169 3168 3168 3167 3167 3167 3167 3167 3168 3169 3170 3170 3171 3171 3170
3127 3130 3130 3128 3127 3127 3126 3126 3128 3126 3127 3132 3132 3131 3133 3135 3137 3138 3139 3140 3141 3142 3143 3144 3145 3145 3145 3146 3146 3147 3147 3148 3149 3149 3150 3150 3151 3153 3154 3155 3156 3157 3159 3160 3160 3161 3163 3163 3164 3164 3165 3166 3166 3167 3168 3168 3168 3168 3168 3168 3168 3168 3167 3167 3167 3167 3168 3168 3168 3168 3168 3168 3168 3168 3167 3167 3167 3167 3168 3169 3170 3170 3171 3171 3171
3129 3130 3128 3127 3126 3124 3123 3125 3124 3120 3123 3129 3131 3131 3132 3134 3136 3137 3138 3139 3140 3141 3142 3143 3144 3144 3145 3145 3145 3146 3147 3148 3148 3149 3149 3150 3151 3152 3153 3154 3154 3155 3157 3159 3159 3161 3161 3161 3162 3163 3164 3165 3165 3166 3167 3167 3167 3167 3167 3167 3167 3167 3167 3167 3167 3167 3167 3167 3167 3168 3168 3168 3168 3168 3167 3167 3167 3167 3168 3169 3170 3170 3171 3171 3171
3129 3127 3126 3126 3126 3125 3124 3125 3123 3120 3123 3128 3130 3130 3131 3132 3134 3135 3136 3137 3138 3140 3140 3141 3142 3143 3143 3144 3144 3145 3146 3147 3147 3148 3148 3149 3150 3151 3152 3153 3153 3154 3156 3157 3158 3160 3160 3160 3161 3163 3164 3164 3164 3165 3166 3166 3166 3166 3166 3167 3166 3166 3166 3166 3166 3167 3167 3167 3167 3167 3168 3168 3168 3168 3168 3167 3168 3168 3169 3169 3169 3170 3171 3171 3172
3127 3125 3124 3125 3125 3125 3125 3124 3123 3124 3127 3129 3128 3128 3128 3129 3131 3133 3134 3136 3137 3138 3139 3139 3140 3141 3142 3143 3143 3144 3145 3145 3146 3147 3148 3149 3150 3150 3151 3152 3153 3154 3156 3156 3157 3159 3158 3158 3160 3161 3163 3164 3164 3165 3165 3166 3166 3166 3166 3166 3166 3166 3166 3166 3166 3166 3166 3167 3167 3167 3167 3168 3168 3168 3168 3168 3169 3169 3169 3169 3169 3170 3171 3171 3171
3125 3124 3123 3123 3123 3124 3124 3123 3121 3122 3127 3128 3126 3126 3126 3127 3130 3131 3133 3134 3136 3137 3138 3138 3139 3140 3140 3141 3142 3143 3143 3144 3145 3146 3147 3148 3149 3149 3150 3151 3153 3154 3155 3156 3157 3157 3157 3158 3159 3160 3161 3162 3163 3164 3165 3166 3166 3165 3165 3165 3165 3166 3166 3165 3165 3166 3166 3166 3167 3167 3167 3167 3168 3168 3168 3168 3169 3169 3169 3169 3170 3170 3170 3171 3171
3124 3123 3122 3122 3123 3123 3123 3124 3121 3120 3124 3126 3126 3126 3126 3127 3129 3130 3131 3133 3134 3136 3137 3137 3138 3138 3139 3139 3140 3141 3142 3143 3144 3145 3147 3148 3148 3149 3150 3151 3153 3154 3155 3156 3156 3156 3157 3158 3159 3159 3160 3161 3162 3163 3164 3165 3165 3164 3164 3164 3164 3165 3165 3165 3165 3165 3166 3166 3167 3167 3167 3167 3168 3168 3168 3169 3169 3169 3169 3170 3170 3170 3170 3170 3171
3123 3123 3122 3122 3123 3123 3123 3124 3123 3121 3122 3125 3126 3126 3126 3127 3127 3128 3129 3131 3132 3133 3134 3135 3136 3136 3137 3138 3139 3140 3141 3142 3143 3145 3146 3147 3148 3149 3150 3151 3152 3153 3155 3155 3155 3156 3156 3157 3158 3158 3159 3160 3161 3162 3163 3163 3163 3164 3164 3164 3164 3164 3164 3164 3165 3165 3166 3166 3166 3167 3167 3167 3168 3168 3168 3169 3169 3169 3169 3169 3170 3170 3170 3170 3170
3122 3122 3122 3122 3123 3124 3124 3124 3123 3123 3123 3125 3126 3126 3127 3127 3127 3127 3128 3129 3130 3131 3132 3133 3134 3134 3135 3136 3137 3138 3140 3141 3142 3144 3145 3146 3148 3149 3150 3151 3152 3153 3154 3154 3154 3155 3156 3157 3157 3157 3158 3159 3160 3161 3162 3162 3163 3163 3163 3163 3163 3164 3164 3164 3164 3165 3165 3166 3166 3167 3167 3167 3167 3167 3168 3168 3168 3169 3169 3169 3170 3170 3170 3170 3170
3121 3121 3121 3122 3122 3123 3123 3123 3123 3123 3124 3125 3126 3126 3127 3127 3127 3127 3127 3127 3128 3128 3130 3131 3132 3133 3134 3135 3136 3137 3139 3140 3142 3143 3144 3145 3147 3148 3149 3151 3152 3153 3153 3153 3153 3154 3155 3156 3157 3157 3158 3158 3159 3160 3161 3161 3162 3162 3162 3163 3163 3163 3163 3164 3164 3165 3165 3165 3166 3166 3167 3167 3167 3167 3168 3168 3169 3169 3169 3169 3170 3170 3170 3170 3170
3118 3119 3119 3120 3121 3122 3122 3123 3123 3123 3124 3125 3126 3127 3127 3127 3127 3127 3127 3127 3127 3127 3128 3130 3131 3132 3133 3134 3135 3137 3138 3140 3142 3143 3144 3145 3146 3147 3149 3150 3151 3152 3152 3152 3153 3154 3155 3156 3157 3157 3158 3158 3159 3160 3160 3161 3161 3162 3162 3162 3162 3162 3163 3164 3164 3165 3165 3165 3166 3166 3167 3167 3168 3168 3168 3169 3169 3169 3169 3169 3170 3170 3170 3170 3170
3113 3114 3115 3117 3119 3120 3121 3121 3121 3121 3122 3123 3124 3125 3126 3126 3126 3126 3126 3126 3127 3127 3128 3129 3130 3131 3132 3133 3134 3136 3137 3139 3141 3142 3143 3144 3146 3147 3148 3149 3150 3151 3151 3152 3153 3154 3154 3155 3156 3157 3158 3158 3159 3159 3159 3160 3161 3161 3161 3162 3162 3162 3163 3163 3164 3164 3165 3165 3166 3166 3167 3167 3168 3168 3168 3169 3169 3169 3169 3169 3170 3170 3170 3170 3170